Погода в Амдерме

Погода в Амдерме : погода сейчас, прогноз погоды и архив. Всё, что Вы хотите узнать о погоде в Амдерме!

Хотите узнать прогноз погоды в Амдерме? Тогда Вам сюда: Погода в Амдерме

Поиск расширенной информации на нашем сайте:

Другие новости

Новости СМИ2

Главная страница сайта

Новости сайта

03.07.2017

Напоминаем, что на нашем специализированном сайте Метеоцентр.Азия вы можете получить высокодетализированные автоматические прогнозы погоды по пунктам России, СНГ и мира в авиационном формате (включающие направление и скорость ветра, видимость, явления погоды, количество и форму облачности, нижнюю и верхнюю границу облачности).


Погода в Амдерме - сегодня

Время (UTC), дата Ветер
(°,м/с) 
Видим.   Явления Облачность Т
(°С)
Тd
(°С)
f(%) Тe
(°С)
Pmin
(гПа)
dP
(гПа)
Po
(мм)
O2
(г/м3)
Тmin Tmax R s Состояние
почвы
15 12.10.18 010 (С) 12-19{21}  10 км  слаб. ливневой снег  10/10 300 м кучево-дожд. 
[Cb cap]
+1.5 +0.3 92 -4  998.9  1.3  745  298    +2.3     
03 13.10.18 360 (С) 8{11}  2000 м  слаб. ливневой снег  10/10 210 м кучево-дожд. 
[Cb cap]
+0.2   995.5  1.3  744    -0.1    0.6  равномерный
мокрый или
старый снег
100% 
15 13.10.18 010 (С) 9-16{18}  10 км    10/10 300 м 
[Sc]
+1.7 -0.4 86 -2  1008.2  1.4  751  301    +2.7  0.5     
15 14.10.18 340 (С) 5{10}  10 км  {ливн. осадки}  10/10 600 м 
[Sc]
-0.1 -2 87 -3  1013.4  0.2  755  305    +2.1  0.6     
21 14.10.18 340 (С) 10 км    10/10 600 м 
[Sc]
+0.7 -2.2 81 1013.5  0.3  755  304           
00 15.10.18 220 (ЮЗ) 10 км    9/9 600 м 
[Sc]
-0.8 -1.2 97 -2  1014  0.5  756  306           
03 15.10.18 180 (Ю) 10 км    9/8 600 м средняя 
[Sc|Ac trans]
-2.8 -3.4 96 -5  1014.2  0.1  756  308  -2.8    0.0  равномерный
сухой снег
100% 
06 15.10.18 180 (Ю) 10 км    9/9 600 м верхняя 
[Sc|Ci fib]
-0.3 -0.8 96 -3  1013.5  -0.6  755  305  -2.9         
09 15.10.18 190 (Ю) 6{11}  10 км    9/9 600 м 
[Sc]
+0.4 -1 90 -3  1012.3  -1.2  754  304           
12 15.10.18 170 (Ю) 10 км    9/3 600 м средняя, верхняя 
[Sc|Ac As|Ci sp]
-0.9 -2.6 88 -5  1009.8  -2.5  753  305           
15 15.10.18 170 (Ю) 11-14{15}  10 км    10/0 средняя 
[As op]
-1.7 -3.1 90 -7  1006.1  -3.7  750  304    +0.5       
03 16.10.18 280 (З) 10-17{22}  10 км  {ливн. осадки}  10/10 300 м 
[Sc]
+2.5 +2.1 97 -2  986.1  -0.4  735  293  -1.7    мокрый или
старый снег
50-90% 
12 16.10.18 280 (З) 12-21{23}  10 км  слаб. ливневой дождь со снегом  9/8 300 м кучево-дожд., средняя 
[Cb cap|Ac trans]
+1.9 +1 94 -3  983.3  -0.1  733  293           
15 16.10.18 340 (С) 10-17{22}  10 км  слаб. ливневой дождь  10/10 300 м кучево-дожд. 
[Cb cap]
+1.9 +0.6 91 -3  986.2  2.9  735  294    +3.6  0.6     
03 17.10.18 010 (С) 8-12{16}  10 км  слаб. ливневой снег  9/9 300 м кучево-дожд. 
[Cb cap]
-0.1 -0.1 100 -4  995  2.2  742  299  -0.1    0.5  равномерный
мокрый или
старый снег
100% 
15 17.10.18 360 (С) 6-10{13}  10 км    10/10 600 м 
[Sc]
+1.7 -1.9 77 -1  1007.5  2.5  751  301    +2  0.0     
18 17.10.18 010 (С) 4{11}  10 км    9/9 600 м 
[Sc]
+1.9 -2.5 73 1009  1.5  752  301           
21 17.10.18 330 (СЗ) 10 км    10/10 600 м 
[Sc]
+1.3 -1.1 84 1010.1  753  302           
00 18.10.18 270 (З) 10 км    9/9 600 м 
[Sc]
-0 -0.4 97 -2  1010.6  0.5  753  304           
03 18.10.18 230 (ЮЗ) 10 км  в посл. час ливневой снег  9/9 600 м кучево-дожд. 
[Cb cap]
-0.8 -1.2 97 -2  1010.6  753  304  -0.8    0.2  <0.5  равномерный
сухой снег
100% 
06 18.10.18 200 (Ю) 10 км  {ливн. осадки}  9/9 600 м 
[Sc]
-0.3 -0.8 96 -2  1010  -0.6  753  304           
09 18.10.18 180 (Ю) 10 км  {ливн. осадки}  9/3 300 м средняя 
[Sc|Ac trans]
+0.3 -0.6 94 -3  1009.1  -0.9  752  303           
12 18.10.18 190 (Ю) 4000 м  дымка{ливн. осадки}  9/8 600 м средняя 
[Sc|Ac trans]
+0.2 +0.1 99 -2  1008.3  -0.8  751  303           
18 18.10.18 190 (Ю) 6{10}  10 км    10/10 600 м 
[Sc]
-0.9 -1.5 96 -5  1006.7  -1  750  303           
21 18.10.18 180 (Ю) 10 км    9/9 600 м 
[Sc]
-1 -1.6 96 -5  1006.1  -0.5  750  303           
Время (UTC), дата Ветер
(°,м/с) 
Видим.   Явления Облачность Т
(°С)
Тd
(°С)
f(%) Тe
(°С)
Pmin
(гПа)
dP
(гПа)
Po
(мм)
O2
(г/м3)
Тmin Tmax R s Состояние
почвы

Для получения пояснительной информации подведите курсор к названию столбца.

ПОГОДА в Амдерме - архив

Всё, что Вы хотите узнать о погоде в Амдерме - удобно и подробно!

Выберите нужную дату (начиная с 1 января 2015* года) и нажмите кнопку "Найти".
Будут отображены архивные сводки погоды по пункту Амдерма, начиная с указанной даты.


Отображать данные в формате CSV (для использования в таблицах Excel)


Внимание! Наш архив погоды предназначен исключительно для личного некоммерческого использования в познавательных целях. Если Вам необходимы официальные справки о состоянии погоды (для производственных, юридических, коммерческих и т.п. целей), обращайтесь в органы Росгидромета.

*Примечание: данная дата относится к архиву по метеостанциям СССР (Россия, СНГ, Балтия).
Архив по метеостанциям Зарубежной Европы и Азии (кроме Китая) хранится 10 дней, по другим регионам земного шара (Китай, Африка, Америка, Австралия, Океания) - 1 день.

Амдерма - район местоположения метеостанции


Название, широта, долгота, высота метеостанции:
Амдерма 69.8°ш. 61.7°д. 49 м над ур. моря [Российская Федерация]

Дополнительная информация

В oтличие oт бoльшинства пoгoдных сайтoв мы публикуем пoдрoбную метеoинфoрмацию в детальнoм прoфессиoнальнoм фoрмате.

Характеристики температуры и влажнoсти вoздуха измеряются на высoте 2 м в тени вдали oт зданий и деревьев.
Скoрoсть ветра измеряется на высoте 10 м (на урoвне рoста челoвека скoрoсть ветра ниже в 1.5-2 раза). Если метеoстанция нахoдится в гoрoде или в лесу, тo скoрoсть ветра занижена на 2-4 м/с пo сравнению с oткрытым местoм. Скoрoсть ветра над акватoриями крупных рек и oзёр, а также на вершинах хoлмoв на 2-5 м/с выше, чем в oбычных услoвиях.
Атмoсфернoе давление в разных тoчках местнoсти мoжет значительнo oтличаться oт давления на метеoстанции, в зависимoсти oт услoвий рельефа (при пoдъёме на 10 м давление пoнижается примернo на 1 мм рт.ст.).